M I D A S
Marine Information and Data Acquisition System
Tripno 2243 of the Zeeleeuw from 2011-11-10 07:49:08 to 2011-11-10 16:26:49
Back to CruiseResearch ActivitiesStationsMapUnderway DataData graphs

EquipmentUnitsComments
TimeDGPSUTC
LatitudeDGPSDM.mWGS84
LongitudeDGPSDM.mWGS84
SpeedMeteo Stationm/sRelative wind speed
DirectionMeteo StationdegRelative wind direction
TemperatureMeteo Stationdeg CelciusAir temperature
PressureMeteo StationPaAtmospheric pressure
HumidityMeteo Station%Relative humidity
Missing or incorrect values are displayed as -999
Metereological data collected by the RV Zeeleeuw from 2011-11-10 07:20:09 to 2011-11-10 16:36:01
                                                                                    Next 1000 lines
Time Latitude Longitude Speed Direction Temperature Pressure Humidity
2011-11-10 07:20:21 51°13.64 2°56.018 -999 282 8.6 101950 48
2011-11-10 07:20:25 51°13.639 2°56.018 -999 342 8.6 101950 48
2011-11-10 07:20:30 51°13.639 2°56.018 -999 282 8.5 101950 48
2011-11-10 07:20:34 51°13.639 2°56.018 -999 339 8.5 101950 48
2011-11-10 07:20:39 51°13.639 2°56.018 -999 282 8.6 101950 48
2011-11-10 07:20:46 51°13.638 2°56.018 -999 342 8.6 101950 48
2011-11-10 07:20:49 51°13.638 2°56.018 -999 282 8.5 101950 48
2011-11-10 07:20:54 51°13.637 2°56.018 -999 340 8.5 101950 48
2011-11-10 07:20:59 51°13.638 2°56.019 -999 282 8.5 101950 48
2011-11-10 07:21:05 51°13.637 2°56.019 -999 340 8.5 101950 48
2011-11-10 07:21:10 51°13.637 2°56.019 -999 343 8.5 101950 48
2011-11-10 07:21:14 51°13.637 2°56.019 -999 342 8.5 101950 48
2011-11-10 07:21:19 51°13.636 2°56.019 -999 282 8.5 101950 48
2011-11-10 07:21:25 51°13.635 2°56.018 -999 339 8.5 101950 48
2011-11-10 07:21:30 51°13.635 2°56.018 -999 282 8.5 101950 48
2011-11-10 07:21:35 51°13.635 2°56.018 -999 336 8.5 101950 48
2011-11-10 07:21:40 51°13.634 2°56.019 -999 282 8.5 101950 48
2011-11-10 07:21:45 51°13.634 2°56.018 -999 340 8.5 101950 48
2011-11-10 07:21:50 51°13.635 2°56.019 -999 282 8.5 101950 48
2011-11-10 07:21:55 51°13.635 2°56.019 -999 341 8.5 101950 48
2011-11-10 07:22:00 51°13.636 2°56.019 -999 282 8.5 101950 48
2011-11-10 07:22:04 51°13.636 2°56.019 -999 344 8.5 101950 48
2011-11-10 07:22:10 51°13.637 2°56.019 -999 340 8.5 101950 46
2011-11-10 07:22:15 51°13.637 2°56.019 -999 346 8.5 101950 46
2011-11-10 07:22:20 51°13.636 2°56.019 -999 282 8.5 101950 48
2011-11-10 07:22:25 51°13.636 2°56.018 -999 340 8.5 101950 48
2011-11-10 07:22:31 51°13.636 2°56.018 -999 282 8.5 101950 48
2011-11-10 07:22:35 51°13.636 2°56.018 -999 334 8.5 101950 48
2011-11-10 07:22:40 51°13.635 2°56.018 -999 282 8.5 101950 48
2011-11-10 07:22:45 51°13.634 2°56.018 -999 341 8.5 101950 48
2011-11-10 07:22:50 51°13.633 2°56.018 -999 282 8.5 101950 48
2011-11-10 07:22:54 51°13.633 2°56.018 -999 343 8.5 101950 48
2011-11-10 07:23:00 51°13.633 2°56.018 -999 282 8.4 101950 48
2011-11-10 07:23:05 51°13.634 2°56.018 -999 337 8.4 101950 48
2011-11-10 07:23:10 51°13.634 2°56.018 -999 340 8.5 101950 48
2011-11-10 07:23:14 51°13.634 2°56.018 -999 343 8.5 101950 48
2011-11-10 07:23:20 51°13.635 2°56.018 -999 282 8.5 101950 48
2011-11-10 07:23:25 51°13.635 2°56.018 -999 339 8.5 101950 48
2011-11-10 07:23:29 51°13.635 2°56.018 -999 282 8.5 101950 48
2011-11-10 07:23:35 51°13.635 2°56.018 -999 341 8.5 101950 48
2011-11-10 07:23:39 51°13.635 2°56.018 -999 282 8.5 101950 48
2011-11-10 07:23:45 51°13.635 2°56.018 -999 336 8.5 101950 48
2011-11-10 07:23:50 51°13.635 2°56.018 -999 282 8.5 101950 48
2011-11-10 07:23:55 51°13.635 2°56.018 -999 336 8.5 101950 48
2011-11-10 07:24:00 51°13.635 2°56.018 -999 282 8.5 101960 48
2011-11-10 07:24:04 51°13.634 2°56.018 -999 336 8.5 101960 48
2011-11-10 07:24:10 51°13.634 2°56.018 -999 336 8.5 101950 48
2011-11-10 07:24:15 51°13.635 2°56.018 -999 332 8.5 101950 48
2011-11-10 07:24:20 51°13.635 2°56.018 -999 282 8.5 101950 48
2011-11-10 07:24:25 51°13.635 2°56.018 -999 335 8.5 101950 48
2011-11-10 07:24:30 51°13.635 2°56.018 -999 282 8.5 101950 48
2011-11-10 07:24:35 51°13.635 2°56.018 -999 331 8.5 101950 48
2011-11-10 07:24:40 51°13.635 2°56.018 -999 282 8.5 101960 48
2011-11-10 07:24:44 51°13.635 2°56.018 -999 345 8.5 101960 48
2011-11-10 07:24:50 51°13.636 2°56.018 -999 282 8.5 101950 47
2011-11-10 07:24:55 51°13.636 2°56.018 -999 322 8.5 101950 47
2011-11-10 07:25:00 51°13.636 2°56.018 -999 282 8.5 101950 48
2011-11-10 07:25:05 51°13.636 2°56.018 -999 326 8.5 101950 48
2011-11-10 07:25:10 51°13.636 2°56.018 -999 -999 8.5 101960 48
2011-11-10 07:25:15 51°13.636 2°56.018 -999 339 8.5 101960 48
2011-11-10 07:25:20 51°13.636 2°56.018 -999 282 8.5 101950 48
2011-11-10 07:25:26 51°13.636 2°56.019 -999 345 8.5 101950 48
2011-11-10 07:25:30 51°13.636 2°56.019 -999 282 8.5 101960 48
2011-11-10 07:25:34 51°13.636 2°56.018 -999 338 8.5 101960 48
2011-11-10 07:25:40 51°13.637 2°56.018 -999 282 8.5 101950 48
2011-11-10 07:25:45 51°13.637 2°56.018 -999 339 8.5 101950 48
2011-11-10 07:25:50 51°13.637 2°56.018 -999 282 8.5 101950 48
2011-11-10 07:25:55 51°13.637 2°56.018 -999 344 8.5 101950 48
2011-11-10 07:26:00 51°13.638 2°56.018 -999 282 8.5 101950 48
2011-11-10 07:26:05 51°13.638 2°56.018 -999 325 8.5 101950 48
2011-11-10 07:26:10 51°13.638 2°56.018 -999 -999 8.5 101950 48
2011-11-10 07:26:15 51°13.637 2°56.018 -999 330 8.5 101950 48
2011-11-10 07:26:20 51°13.637 2°56.018 -999 282 8.5 101950 48
2011-11-10 07:26:25 51°13.637 2°56.018 -999 330 8.5 101950 48
2011-11-10 07:26:30 51°13.637 2°56.018 -999 282 8.5 101950 48
2011-11-10 07:26:35 51°13.637 2°56.018 -999 341 8.5 101960 48
2011-11-10 07:26:40 51°13.637 2°56.018 -999 282 8.5 101960 48
2011-11-10 07:26:45 51°13.637 2°56.018 -999 338 8.5 101960 48
2011-11-10 07:26:50 51°13.637 2°56.018 -999 282 8.5 101950 48
2011-11-10 07:26:55 51°13.637 2°56.018 -999 340 8.5 101950 48
2011-11-10 07:27:00 51°13.638 2°56.018 -999 282 8.5 101950 48
2011-11-10 07:27:05 51°13.637 2°56.018 -999 337 8.5 101950 48
2011-11-10 07:27:10 51°13.637 2°56.018 -999 337 8.5 101960 48
2011-11-10 07:27:15 51°13.637 2°56.018 -999 345 8.5 101960 48
2011-11-10 07:27:20 51°13.636 2°56.018 -999 282 8.5 101950 48
2011-11-10 07:27:25 51°13.636 2°56.018 -999 342 8.5 101950 48
2011-11-10 07:27:30 51°13.635 2°56.018 -999 282 8.5 101960 47
2011-11-10 07:27:35 51°13.635 2°56.018 -999 337 8.5 101960 47
2011-11-10 07:27:40 51°13.635 2°56.018 -999 282 8.6 101960 48
2011-11-10 07:27:45 51°13.636 2°56.018 -999 342 8.6 101960 48
2011-11-10 07:27:50 51°13.636 2°56.018 -999 282 8.6 101960 48
2011-11-10 07:27:55 51°13.636 2°56.018 -999 337 8.6 101960 48
2011-11-10 07:28:00 51°13.636 2°56.018 -999 282 8.5 101960 48
2011-11-10 07:28:05 51°13.636 2°56.018 -999 344 8.5 101960 48
2011-11-10 07:28:10 51°13.636 2°56.018 -999 -999 8.6 101950 48
2011-11-10 07:28:15 51°13.637 2°56.018 -999 344 8.6 101950 48
2011-11-10 07:28:20 51°13.637 2°56.018 -999 282 8.6 101950 48
2011-11-10 07:28:25 51°13.636 2°56.018 -999 342 8.6 101950 48
2011-11-10 07:28:30 51°13.636 2°56.018 -999 282 8.6 101950 48
2011-11-10 07:28:35 51°13.636 2°56.018 -999 341 8.6 101950 48
2011-11-10 07:28:40 51°13.636 2°56.018 -999 282 8.6 101950 48
2011-11-10 07:28:45 51°13.636 2°56.018 -999 336 8.6 101950 48
2011-11-10 07:28:50 51°13.636 2°56.018 -999 282 8.6 101960 48
2011-11-10 07:28:55 51°13.636 2°56.018 -999 330 8.6 101960 48
2011-11-10 07:29:00 51°13.636 2°56.018 -999 282 8.6 101960 48
2011-11-10 07:29:05 51°13.636 2°56.018 -999 347 8.6 101960 48
2011-11-10 07:29:10 51°13.636 2°56.018 -999 348 8.6 101950 48
2011-11-10 07:29:15 51°13.636 2°56.018 -999 336 8.6 101950 48
2011-11-10 07:29:20 51°13.636 2°56.018 -999 282 8.6 101960 48
2011-11-10 07:29:25 51°13.636 2°56.018 -999 341 8.6 101960 48
2011-11-10 07:29:29 51°13.636 2°56.018 -999 339 8.6 101960 48
2011-11-10 07:29:36 51°13.636 2°56.018 -999 339 8.6 101960 48
2011-11-10 07:29:41 51°13.637 2°56.018 -999 339 8.6 101960 48
2011-11-10 07:29:46 51°13.637 2°56.019 -999 339 8.6 101960 48
2011-11-10 07:29:51 51°13.638 2°56.019 -999 339 8.6 101960 48
2011-11-10 07:29:56 51°13.638 2°56.019 -999 339 -999 -999 -999
2011-11-10 07:30:01 51°13.638 2°56.019 -999 -999 -999 -999 -999
2011-11-10 07:30:06 51°13.638 2°56.019 -999 -999 -999 -999 -999
2011-11-10 07:30:11 51°13.638 2°56.019 -999 340 -999 -999 -999
2011-11-10 07:30:16 51°13.638 2°56.019 -999 343 -999 -999 -999
2011-11-10 07:30:21 51°13.638 2°56.019 -999 283 -999 -999 -999
2011-11-10 07:30:26 51°13.638 2°56.019 -999 334 -999 -999 -999
2011-11-10 07:30:31 51°13.638 2°56.019 -999 282 -999 -999 -999
2011-11-10 07:30:36 51°13.639 2°56.019 -999 330 8.4 -999 20
2011-11-10 07:30:41 51°13.639 2°56.019 -999 282 8.4 -999 20
2011-11-10 07:30:46 51°13.639 2°56.019 -999 339 8.5 -999 49
2011-11-10 07:30:51 51°13.64 2°56.019 -999 282 8.5 -999 49
2011-11-10 07:30:55 51°13.64 2°56.019 -999 330 8.5 101960 49
2011-11-10 07:31:01 51°13.64 2°56.019 -999 282 8.5 101960 49
2011-11-10 07:31:06 51°13.64 2°56.019 -999 338 8.5 101960 48
2011-11-10 07:31:11 51°13.639 2°56.019 -999 282 8.5 101960 48
2011-11-10 07:31:16 51°13.639 2°56.019 -999 338 8.5 101960 48
2011-11-10 07:31:21 51°13.639 2°56.019 -999 282 8.5 101960 48
2011-11-10 07:31:25 51°13.638 2°56.019 -999 336 8.5 101960 48
2011-11-10 07:31:30 51°13.637 2°56.019 -999 282 8.5 101960 48
2011-11-10 07:31:35 51°13.637 2°56.019 -999 330 8.5 101960 48
2011-11-10 07:31:40 51°13.637 2°56.019 -999 282 8.5 101960 48
2011-11-10 07:31:44 51°13.637 2°56.019 -999 339 8.5 101960 48
2011-11-10 07:31:50 51°13.636 2°56.019 -999 282 8.5 101960 48
2011-11-10 07:31:55 51°13.636 2°56.019 -999 342 8.5 101960 48
2011-11-10 07:32:00 51°13.637 2°56.019 -999 282 8.5 101960 48
2011-11-10 07:32:05 51°13.637 2°56.019 -999 331 8.5 101960 48
2011-11-10 07:32:10 51°13.636 2°56.019 -999 282 8.5 101960 48
2011-11-10 07:32:14 51°13.635 2°56.019 -999 333 8.5 101960 48
2011-11-10 07:32:20 51°13.635 2°56.019 -999 282 8.5 101960 48
2011-11-10 07:32:24 51°13.635 2°56.019 -999 331 8.5 101960 47
2011-11-10 07:32:29 51°13.635 2°56.018 -999 282 8.5 101960 47
2011-11-10 07:32:34 51°13.635 2°56.018 -999 341 8.5 101960 48
2011-11-10 07:32:39 51°13.634 2°56.018 -999 282 8.5 101960 48
2011-11-10 07:32:44 51°13.634 2°56.018 -999 335 8.5 101960 48
2011-11-10 07:32:48 51°13.634 2°56.019 -999 282 8.5 101960 48
2011-11-10 07:32:54 51°13.634 2°56.019 -999 335 8.5 101960 48
2011-11-10 07:32:59 51°13.635 2°56.019 -999 282 8.5 101960 48
2011-11-10 07:33:04 51°13.635 2°56.019 -999 343 8.5 101960 48
2011-11-10 07:33:09 51°13.635 2°56.019 -999 282 8.5 101960 48
2011-11-10 07:33:13 51°13.636 2°56.019 -999 339 8.5 101960 48
2011-11-10 07:33:19 51°13.636 2°56.019 -999 282 8.5 101960 48
2011-11-10 07:33:23 51°13.636 2°56.019 -999 335 8.5 101960 48
2011-11-10 07:33:28 51°13.637 2°56.019 -999 282 8.5 101960 48
2011-11-10 07:33:33 51°13.637 2°56.019 -999 330 8.5 101960 48
2011-11-10 07:33:39 51°13.637 2°56.019 -999 282 8.5 101960 48
2011-11-10 07:33:44 51°13.637 2°56.019 -999 340 8.5 101960 48
2011-11-10 07:33:48 51°13.637 2°56.019 -999 282 8.5 101960 48
2011-11-10 07:33:53 51°13.637 2°56.019 -999 333 8.5 101960 48
2011-11-10 07:33:59 51°13.637 2°56.019 -999 282 8.5 101960 48
2011-11-10 07:34:04 51°13.636 2°56.019 -999 341 8.5 101960 48
2011-11-10 07:34:08 51°13.636 2°56.018 -999 282 8.5 101960 48
2011-11-10 07:34:13 51°13.636 2°56.018 -999 344 8.5 101960 48
2011-11-10 07:34:19 51°13.637 2°56.018 -999 282 8.5 101960 48
2011-11-10 07:34:23 51°13.637 2°56.018 -999 327 8.5 101960 48
2011-11-10 07:34:29 51°13.636 2°56.019 -999 282 8.5 101960 48
2011-11-10 07:34:33 51°13.636 2°56.019 -999 342 8.5 101960 48
2011-11-10 07:34:39 51°13.636 2°56.019 -999 282 8.5 101960 48
2011-11-10 07:34:43 51°13.637 2°56.019 -999 339 8.5 101960 48
2011-11-10 07:34:48 51°13.636 2°56.019 -999 282 8.5 101960 48
2011-11-10 07:34:53 51°13.636 2°56.019 -999 340 8.5 101970 48
2011-11-10 07:34:58 51°13.637 2°56.018 -999 282 8.5 101970 48
2011-11-10 07:35:03 51°13.637 2°56.018 -999 326 8.6 101970 47
2011-11-10 07:35:08 51°13.637 2°56.018 -999 282 8.6 101970 47
2011-11-10 07:35:13 51°13.636 2°56.018 -999 334 8.6 101970 48
2011-11-10 07:35:18 51°13.636 2°56.019 -999 353 8.6 101970 48
2011-11-10 07:35:23 51°13.636 2°56.018 -999 343 8.6 101970 48
2011-11-10 07:35:28 51°13.635 2°56.018 -999 282 8.6 101970 48
2011-11-10 07:35:32 51°13.635 2°56.018 -999 332 8.6 101970 48
2011-11-10 07:35:37 51°13.634 2°56.017 -999 282 8.6 101970 48
2011-11-10 07:35:42 51°13.634 2°56.017 -999 343 8.6 101970 48
2011-11-10 07:35:47 51°13.634 2°56.017 -999 282 8.6 101970 48
2011-11-10 07:35:52 51°13.634 2°56.017 -999 343 8.6 101970 48
2011-11-10 07:35:56 51°13.634 2°56.017 -999 282 8.6 101970 48
2011-11-10 07:36:02 51°13.634 2°56.018 -999 340 8.6 101970 48
2011-11-10 07:36:07 51°13.635 2°56.017 -999 282 8.6 101970 48
2011-11-10 07:36:13 51°13.635 2°56.018 -999 332 8.6 101970 48
2011-11-10 07:36:17 51°13.635 2°56.018 -999 282 8.6 101970 48
2011-11-10 07:36:23 51°13.635 2°56.018 -999 334 8.6 101970 48
2011-11-10 07:36:28 51°13.636 2°56.018 -999 282 8.6 101970 48
2011-11-10 07:36:33 51°13.636 2°56.018 -999 332 8.6 101970 48
2011-11-10 07:36:37 51°13.635 2°56.018 -999 282 8.6 101970 48
2011-11-10 07:36:42 51°13.635 2°56.018 -999 334 8.6 101970 48
2011-11-10 07:36:48 51°13.635 2°56.018 -999 282 8.6 101970 48
2011-11-10 07:36:52 51°13.635 2°56.018 -999 338 8.6 101970 48
2011-11-10 07:36:57 51°13.635 2°56.018 -999 282 8.6 101970 48
2011-11-10 07:37:02 51°13.635 2°56.018 -999 338 8.6 101970 48
2011-11-10 07:37:08 51°13.635 2°56.018 -999 282 8.6 101970 48
2011-11-10 07:37:13 51°13.635 2°56.018 -999 333 8.6 101970 48
2011-11-10 07:37:18 51°13.635 2°56.018 -999 282 8.6 101970 48
2011-11-10 07:37:23 51°13.635 2°56.018 -999 338 8.6 101970 48
2011-11-10 07:37:28 51°13.635 2°56.018 -999 282 8.6 101970 48
2011-11-10 07:37:33 51°13.635 2°56.018 -999 341 8.6 101960 48
2011-11-10 07:37:37 51°13.635 2°56.018 -999 282 8.6 101960 48
2011-11-10 07:37:42 51°13.634 2°56.018 -999 340 8.6 101970 47
2011-11-10 07:37:48 51°13.634 2°56.018 -999 282 8.6 101970 47
2011-11-10 07:37:53 51°13.635 2°56.018 -999 343 8.6 101960 48
2011-11-10 07:37:59 51°13.635 2°56.018 -999 282 8.6 101960 48
2011-11-10 07:38:05 51°13.635 2°56.018 -999 340 8.6 101970 48
2011-11-10 07:38:09 51°13.635 2°56.018 -999 282 8.6 101970 48
2011-11-10 07:38:14 51°13.635 2°56.019 -999 337 8.7 101960 48
2011-11-10 07:38:19 51°13.635 2°56.019 -999 282 8.7 101960 48
2011-11-10 07:38:24 51°13.635 2°56.019 -999 342 8.7 101970 48
2011-11-10 07:38:29 51°13.635 2°56.019 -999 282 8.7 101970 48
2011-11-10 07:38:34 51°13.635 2°56.019 -999 339 8.7 101970 48
2011-11-10 07:38:39 51°13.635 2°56.019 -999 282 8.7 101970 48
2011-11-10 07:38:45 51°13.636 2°56.019 -999 339 8.7 101960 48
2011-11-10 07:38:49 51°13.636 2°56.019 -999 282 8.7 101960 48
2011-11-10 07:38:54 51°13.636 2°56.019 -999 340 8.7 101960 48
2011-11-10 07:38:59 51°13.636 2°56.019 -999 282 8.7 101960 48
2011-11-10 07:39:05 51°13.636 2°56.019 -999 335 8.7 101960 48
2011-11-10 07:39:09 51°13.636 2°56.019 -999 282 8.7 101960 48
2011-11-10 07:39:14 51°13.636 2°56.019 -999 338 8.6 101960 48
2011-11-10 07:39:19 51°13.636 2°56.019 -999 282 8.6 101960 48
2011-11-10 07:39:24 51°13.635 2°56.019 -999 340 8.6 101970 48
2011-11-10 07:39:29 51°13.635 2°56.019 -999 282 8.6 101970 48
2011-11-10 07:39:34 51°13.635 2°56.019 -999 341 8.6 101960 48
2011-11-10 07:39:39 51°13.635 2°56.019 -999 282 8.6 101960 48
2011-11-10 07:39:44 51°13.635 2°56.019 -999 342 8.6 101960 48
2011-11-10 07:39:49 51°13.635 2°56.019 -999 282 8.6 101960 48
2011-11-10 07:39:53 51°13.635 2°56.019 -999 341 8.6 101970 48
2011-11-10 07:39:58 51°13.635 2°56.019 -999 282 8.6 101970 48
2011-11-10 07:40:03 51°13.635 2°56.019 -999 333 8.6 101960 48
2011-11-10 07:40:08 51°13.635 2°56.019 -999 282 8.6 101960 48
2011-11-10 07:40:13 51°13.635 2°56.019 -999 339 8.6 101970 48
2011-11-10 07:40:18 51°13.635 2°56.019 -999 282 8.6 101970 48
2011-11-10 07:40:23 51°13.635 2°56.019 -999 344 8.6 101960 46
2011-11-10 07:40:28 51°13.635 2°56.019 -999 282 8.6 101960 46
2011-11-10 07:40:33 51°13.635 2°56.019 -999 344 8.6 101970 48
2011-11-10 07:40:37 51°13.635 2°56.019 -999 282 8.6 101970 48
2011-11-10 07:40:42 51°13.635 2°56.019 -999 341 8.5 101960 48
2011-11-10 07:40:48 51°13.635 2°56.019 -999 282 8.5 101960 48
2011-11-10 07:40:52 51°13.635 2°56.019 -999 339 8.6 101970 48
2011-11-10 07:40:57 51°13.635 2°56.019 -999 282 8.6 101970 48
2011-11-10 07:41:02 51°13.635 2°56.019 -999 336 8.5 101970 48
2011-11-10 07:41:07 51°13.635 2°56.019 -999 282 8.5 101970 48
2011-11-10 07:41:12 51°13.635 2°56.019 -999 343 8.5 101970 48
2011-11-10 07:41:17 51°13.635 2°56.019 -999 282 8.5 101970 48
2011-11-10 07:41:22 51°13.634 2°56.019 -999 344 8.5 101970 48
2011-11-10 07:41:28 51°13.634 2°56.019 -999 282 8.5 101970 48
2011-11-10 07:41:32 51°13.634 2°56.019 -999 331 8.5 101970 48
2011-11-10 07:41:37 51°13.634 2°56.019 -999 282 8.5 101970 48
2011-11-10 07:41:42 51°13.634 2°56.019 -999 345 8.5 101970 48
2011-11-10 07:41:47 51°13.633 2°56.019 -999 282 8.5 101970 48
2011-11-10 07:41:52 51°13.633 2°56.019 -999 341 8.5 101970 48
2011-11-10 07:41:57 51°13.634 2°56.019 -999 282 8.5 101970 48
2011-11-10 07:42:02 51°13.634 2°56.019 -999 343 8.6 101970 48
2011-11-10 07:42:07 51°13.634 2°56.019 -999 282 8.6 101970 48
2011-11-10 07:42:13 51°13.634 2°56.019 -999 343 8.6 101970 48
2011-11-10 07:42:17 51°13.634 2°56.019 -999 282 8.6 101970 48
2011-11-10 07:42:22 51°13.634 2°56.019 -999 337 8.6 101970 48
2011-11-10 07:42:27 51°13.634 2°56.019 -999 282 8.6 101970 48
2011-11-10 07:42:32 51°13.634 2°56.019 -999 337 8.6 101970 48
2011-11-10 07:42:37 51°13.634 2°56.019 -999 282 8.6 101970 48
2011-11-10 07:42:42 51°13.634 2°56.02 -999 340 8.6 101970 48
2011-11-10 07:42:47 51°13.634 2°56.02 -999 282 8.6 101970 48
2011-11-10 07:42:52 51°13.634 2°56.019 -999 343 8.6 101970 48
2011-11-10 07:42:57 51°13.634 2°56.019 -999 282 8.6 101970 48
2011-11-10 07:43:02 51°13.634 2°56.019 -999 340 8.6 101970 46
2011-11-10 07:43:08 51°13.634 2°56.019 -999 282 8.6 101970 46
2011-11-10 07:43:12 51°13.634 2°56.02 -999 338 8.6 101970 48
2011-11-10 07:43:17 51°13.634 2°56.02 -999 282 8.6 101970 48
2011-11-10 07:43:23 51°13.634 2°56.019 -999 339 8.6 101970 48
2011-11-10 07:43:28 51°13.634 2°56.019 -999 282 8.6 101970 48
2011-11-10 07:43:33 51°13.634 2°56.019 -999 341 8.6 101970 48
2011-11-10 07:43:37 51°13.634 2°56.02 -999 282 8.6 101970 48
2011-11-10 07:43:42 51°13.634 2°56.02 -999 344 8.6 101970 48
2011-11-10 07:43:47 51°13.633 2°56.019 -999 282 8.6 101970 48
2011-11-10 07:43:52 51°13.633 2°56.019 -999 342 8.6 101970 48
2011-11-10 07:43:57 51°13.633 2°56.019 -999 282 8.6 101970 48
2011-11-10 07:44:02 51°13.633 2°56.019 -999 345 8.6 101970 48
2011-11-10 07:44:07 51°13.633 2°56.019 -999 282 8.6 101970 48
2011-11-10 07:44:13 51°13.633 2°56.019 -999 344 8.6 101970 48
2011-11-10 07:44:17 51°13.633 2°56.019 -999 282 8.6 101970 48
2011-11-10 07:44:22 51°13.633 2°56.019 -999 335 8.6 101970 48
2011-11-10 07:44:27 51°13.633 2°56.019 -999 281 8.6 101970 48
2011-11-10 07:44:32 51°13.633 2°56.019 -999 337 8.6 101970 48
2011-11-10 07:44:37 51°13.632 2°56.019 -999 282 8.6 101970 48
2011-11-10 07:44:42 51°13.631 2°56.019 -999 335 8.6 101970 48
2011-11-10 07:44:47 51°13.631 2°56.019 -999 282 8.6 101970 48
2011-11-10 07:44:52 51°13.632 2°56.019 -999 337 8.6 101970 48
2011-11-10 07:44:57 51°13.631 2°56.019 -999 282 8.6 101970 48
2011-11-10 07:45:02 51°13.631 2°56.019 -999 340 8.6 101970 48
2011-11-10 07:45:07 51°13.632 2°56.019 -999 282 8.6 101970 48
2011-11-10 07:45:12 51°13.632 2°56.019 -999 330 8.6 101970 48
2011-11-10 07:45:17 51°13.633 2°56.019 -999 282 8.6 101970 48
2011-11-10 07:45:22 51°13.633 2°56.019 -999 336 8.6 101970 48
2011-11-10 07:45:27 51°13.633 2°56.019 -999 282 8.6 101970 48
2011-11-10 07:45:33 51°13.633 2°56.019 -999 332 8.6 101970 48
2011-11-10 07:45:37 51°13.633 2°56.019 -999 282 8.6 101970 48
2011-11-10 07:45:42 51°13.634 2°56.019 -999 344 8.6 101980 47
2011-11-10 07:45:48 51°13.634 2°56.019 -999 282 8.6 101980 47
2011-11-10 07:45:53 51°13.635 2°56.019 -999 331 8.6 101980 48
2011-11-10 07:45:57 51°13.636 2°56.019 -999 282 8.6 101980 48
2011-11-10 07:46:02 51°13.636 2°56.019 -999 335 8.6 101980 48
2011-11-10 07:46:08 51°13.635 2°56.019 -999 282 8.6 101980 48
2011-11-10 07:46:12 51°13.635 2°56.019 -999 333 8.6 101980 48
2011-11-10 07:46:17 51°13.635 2°56.019 -999 282 8.6 101980 48
2011-11-10 07:46:22 51°13.635 2°56.018 -999 337 8.6 101980 48
2011-11-10 07:46:27 51°13.635 2°56.019 -999 282 8.6 101980 48
2011-11-10 07:46:32 51°13.635 2°56.019 -999 337 8.6 101980 48
2011-11-10 07:46:37 51°13.635 2°56.019 -999 282 8.6 101980 48
2011-11-10 07:46:42 51°13.635 2°56.019 -999 337 8.6 101980 48
2011-11-10 07:46:47 51°13.635 2°56.019 -999 282 8.6 101980 48
2011-11-10 07:46:53 51°13.634 2°56.018 -999 330 8.6 101980 48
2011-11-10 07:46:57 51°13.634 2°56.019 -999 282 8.6 101980 48
2011-11-10 07:47:02 51°13.634 2°56.019 -999 335 8.6 101980 48
2011-11-10 07:47:07 51°13.633 2°56.019 -999 282 8.6 101980 48
2011-11-10 07:47:12 51°13.633 2°56.019 -999 336 8.6 101980 48
2011-11-10 07:47:17 51°13.633 2°56.019 -999 337 8.6 101980 48
2011-11-10 07:47:22 51°13.633 2°56.019 -999 336 8.6 101980 48
2011-11-10 07:47:27 51°13.633 2°56.019 -999 282 8.6 101980 48
2011-11-10 07:47:32 51°13.633 2°56.019 -999 340 8.7 101980 48
2011-11-10 07:47:37 51°13.633 2°56.019 -999 282 8.7 101980 48
2011-11-10 07:47:42 51°13.633 2°56.019 -999 342 8.7 101980 48
2011-11-10 07:47:48 51°13.633 2°56.019 -999 282 8.7 101980 48
2011-11-10 07:47:52 51°13.633 2°56.018 -999 344 8.7 101980 48
2011-11-10 07:47:57 51°13.633 2°56.019 -999 350 8.7 101980 48
2011-11-10 07:48:02 51°13.633 2°56.019 -999 346 8.7 101980 48
2011-11-10 07:48:08 51°13.633 2°56.019 -999 282 8.7 101980 48
2011-11-10 07:48:13 51°13.633 2°56.019 -999 349 8.7 101980 48
2011-11-10 07:48:17 51°13.633 2°56.018 -999 282 8.7 101980 48
2011-11-10 07:48:22 51°13.633 2°56.019 -999 344 8.7 101980 47
2011-11-10 07:48:27 51°13.633 2°56.018 -999 282 8.7 101980 47
2011-11-10 07:48:33 51°13.633 2°56.018 -999 347 8.7 101980 48
2011-11-10 07:48:37 51°13.633 2°56.019 -999 282 8.7 101980 48
2011-11-10 07:48:42 51°13.633 2°56.019 -999 345 8.7 101980 48
2011-11-10 07:48:47 51°13.633 2°56.018 -999 349 8.7 101980 48
2011-11-10 07:48:52 51°13.633 2°56.018 -999 343 8.7 101980 48
2011-11-10 07:48:57 51°13.633 2°56.017 -999 355 8.7 101980 48
2011-11-10 07:49:02 51°13.633 2°56.015 -999 360 8.7 101980 48
2011-11-10 07:49:07 51°13.634 2°56.011 -999 282 8.7 101980 48
2011-11-10 07:49:12 51°13.635 2°56.008 -999 359 8.7 101980 48
2011-11-10 07:49:17 51°13.635 2°56.003 -999 355 8.7 101980 48
2011-11-10 07:49:23 51°13.637 2°55.997 -999 356 8.7 101980 48
2011-11-10 07:49:29 51°13.638 2°55.99 -999 359 8.7 101980 48
2011-11-10 07:49:34 51°13.639 2°55.984 -999 3 8.7 101980 48
2011-11-10 07:49:41 51°13.641 2°55.974 -999 1 8.7 101980 48
2011-11-10 07:49:45 51°13.643 2°55.968 -999 358 8.7 101980 48
2011-11-10 07:49:51 51°13.644 2°55.959 -999 355 8.7 101980 48
2011-11-10 07:49:56 51°13.646 2°55.952 0.7 352 8.7 101980 48
2011-11-10 07:50:01 51°13.647 2°55.944 0.3 352 8.7 101980 48
2011-11-10 07:50:05 51°13.648 2°55.937 0.3 359 8.7 101980 48
2011-11-10 07:50:11 51°13.65 2°55.927 0.6 -999 8.7 101980 48
2011-11-10 07:50:16 51°13.652 2°55.919 0.7 2 8.7 101980 47
2011-11-10 07:50:21 51°13.654 2°55.91 0.2 -999 8.7 101980 47
2011-11-10 07:50:25 51°13.656 2°55.903 0.1 350 8.7 101980 47
2011-11-10 07:50:31 51°13.659 2°55.893 -999 282 8.7 101980 47
2011-11-10 07:50:36 51°13.661 2°55.884 -999 346 8.7 101980 48
2011-11-10 07:50:41 51°13.664 2°55.874 -999 282 8.7 101980 48
2011-11-10 07:50:45 51°13.667 2°55.867 -999 350 8.7 101980 48
2011-11-10 07:50:51 51°13.671 2°55.856 -999 350 8.7 101980 48
2011-11-10 07:50:56 51°13.674 2°55.847 -999 347 8.7 101980 48
2011-11-10 07:51:01 51°13.678 2°55.838 -999 282 8.7 101980 48
2011-11-10 07:51:05 51°13.681 2°55.831 -999 346 8.7 101980 46
2011-11-10 07:51:11 51°13.686 2°55.821 -999 282 8.7 101980 46
2011-11-10 07:51:16 51°13.69 2°55.812 -999 343 8.7 101980 48
2011-11-10 07:51:21 51°13.695 2°55.803 -999 282 8.7 101980 48
2011-11-10 07:51:25 51°13.698 2°55.796 -999 343 8.7 101980 48
2011-11-10 07:51:31 51°13.704 2°55.786 -999 282 8.7 101980 48
2011-11-10 07:51:36 51°13.708 2°55.778 -999 340 8.7 101980 48
2011-11-10 07:51:41 51°13.713 2°55.769 -999 340 8.7 101980 48
2011-11-10 07:51:45 51°13.717 2°55.762 -999 340 8.7 101980 48
2011-11-10 07:51:51 51°13.723 2°55.751 -999 282 8.7 101980 48
2011-11-10 07:51:56 51°13.728 2°55.743 -999 340 8.7 101980 48
2011-11-10 07:52:01 51°13.733 2°55.735 0.1 282 8.7 101980 48
2011-11-10 07:52:05 51°13.737 2°55.728 0.1 329 8.8 101980 48
2011-11-10 07:52:11 51°13.743 2°55.719 0.1 282 8.8 101980 48
2011-11-10 07:52:16 51°13.749 2°55.712 -999 318 8.8 101980 48
2011-11-10 07:52:21 51°13.755 2°55.704 -999 282 8.8 101980 48
2011-11-10 07:52:25 51°13.759 2°55.699 -999 23 8.8 101980 48
2011-11-10 07:52:31 51°13.766 2°55.691 -999 278 8.8 101980 48
2011-11-10 07:52:36 51°13.772 2°55.685 -999 24 8.8 101980 48
2011-11-10 07:52:41 51°13.779 2°55.679 -999 282 8.8 101980 48
2011-11-10 07:52:45 51°13.784 2°55.675 -999 23 8.8 101980 48
2011-11-10 07:52:51 51°13.791 2°55.669 -999 306 8.8 101980 48
2011-11-10 07:52:56 51°13.798 2°55.664 -999 253 8.9 101980 48
2011-11-10 07:53:01 51°13.805 2°55.66 0.1 278 8.9 101980 48
2011-11-10 07:53:05 51°13.81 2°55.656 0.1 253 8.9 101980 48
2011-11-10 07:53:11 51°13.818 2°55.652 0.5 284 8.9 101980 48
2011-11-10 07:53:16 51°13.825 2°55.649 0.1 252 8.9 101980 48
2011-11-10 07:53:21 51°13.832 2°55.645 0.1 282 8.9 101980 48
2011-11-10 07:53:25 51°13.838 2°55.643 -999 248 8.9 101980 48
2011-11-10 07:53:31 51°13.846 2°55.639 -999 282 8.9 101980 48
2011-11-10 07:53:36 51°13.853 2°55.636 -999 249 8.9 101980 48
2011-11-10 07:53:41 51°13.86 2°55.634 -999 306 8.9 101980 48
2011-11-10 07:53:45 51°13.865 2°55.632 0.8 261 8.9 101980 47
2011-11-10 07:53:51 51°13.873 2°55.629 0.3 282 8.9 101980 47
2011-11-10 07:53:56 51°13.88 2°55.628 0.1 252 8.9 101980 48
2011-11-10 07:54:01 51°13.886 2°55.627 0.1 301 8.9 101980 48
2011-11-10 07:54:05 51°13.891 2°55.626 0.1 259 8.9 101980 47
2011-11-10 07:54:11 51°13.898 2°55.626 0.1 282 8.9 101980 47
2011-11-10 07:54:16 51°13.903 2°55.626 0.1 253 8.9 101980 48
2011-11-10 07:54:21 51°13.909 2°55.626 -999 282 8.9 101980 48
2011-11-10 07:54:25 51°13.913 2°55.627 -999 252 9 101980 48
2011-11-10 07:54:31 51°13.918 2°55.628 -999 282 9 101980 48
2011-11-10 07:54:36 51°13.923 2°55.629 -999 253 9 101980 48
2011-11-10 07:54:41 51°13.927 2°55.631 2 287 9 101980 48
2011-11-10 07:54:45 51°13.931 2°55.632 0.1 262 8.9 101980 48
2011-11-10 07:54:50 51°13.935 2°55.634 0.1 282 8.9 101980 48
2011-11-10 07:54:55 51°13.938 2°55.636 2 260 8.9 101980 48
2011-11-10 07:55:00 51°13.942 2°55.639 3 285 8.9 101980 48
2011-11-10 07:55:05 51°13.946 2°55.641 3.3 263 9 101980 48
2011-11-10 07:55:10 51°13.949 2°55.644 2.3 277 9 101980 48
2011-11-10 07:55:14 51°13.952 2°55.646 1.3 264 8.9 101980 47
2011-11-10 07:55:19 51°13.955 2°55.648 0.2 281 8.9 101980 47
2011-11-10 07:55:24 51°13.958 2°55.651 0.2 266 8.9 101980 47
2011-11-10 07:55:29 51°13.961 2°55.654 0.8 286 8.9 101980 47
2011-11-10 07:55:34 51°13.963 2°55.657 0.3 267 8.9 101980 48
2011-11-10 07:55:39 51°13.966 2°55.66 0.1 306 8.9 101980 48
2011-11-10 07:55:44 51°13.968 2°55.663 0.1 265 8.9 101980 48
2011-11-10 07:55:49 51°13.969 2°55.665 0.5 282 8.9 101980 48
2011-11-10 07:55:53 51°13.971 2°55.666 0.3 265 8.9 101980 48
2011-11-10 07:55:58 51°13.971 2°55.666 0.1 282 8.9 101980 48
2011-11-10 07:56:03 51°13.972 2°55.665 0.1 267 8.9 101980 47
2011-11-10 07:56:08 51°13.972 2°55.664 0.1 282 8.9 101980 47
2011-11-10 07:56:13 51°13.971 2°55.661 0.1 267 9 101980 48
2011-11-10 07:56:17 51°13.971 2°55.658 -999 282 9 101980 48
2011-11-10 07:56:22 51°13.972 2°55.653 -999 269 8.9 101980 47
2011-11-10 07:56:28 51°13.973 2°55.647 -999 79 8.9 101980 47
2011-11-10 07:56:32 51°13.974 2°55.642 -999 23 8.9 101980 48
2011-11-10 07:56:37 51°13.976 2°55.635 -999 78 8.9 101980 48
2011-11-10 07:56:42 51°13.978 2°55.627 -999 23 9 101980 48
2011-11-10 07:56:47 51°13.982 2°55.618 -999 78 9 101980 48
2011-11-10 07:56:52 51°13.986 2°55.608 -999 23 9 101980 48
2011-11-10 07:56:57 51°13.99 2°55.599 -999 78 9 101980 48
2011-11-10 07:57:02 51°13.996 2°55.589 -999 23 9 101980 48
2011-11-10 07:57:07 51°14.001 2°55.579 -999 282 9 101980 48
2011-11-10 07:57:12 51°14.008 2°55.569 -999 264 9 101980 48
2011-11-10 07:57:17 51°14.015 2°55.559 -999 282 9 101980 48
2011-11-10 07:57:22 51°14.023 2°55.548 -999 264 9 101980 48
2011-11-10 07:57:27 51°14.031 2°55.538 -999 282 9 101980 48
2011-11-10 07:57:32 51°14.039 2°55.528 -999 264 9 101980 48
2011-11-10 07:57:37 51°14.048 2°55.518 -999 282 9 101980 48
2011-11-10 07:57:42 51°14.057 2°55.508 -999 264 9 101980 48
2011-11-10 07:57:47 51°14.066 2°55.498 -999 282 9 101980 48
2011-11-10 07:57:53 51°14.078 2°55.486 -999 328 9.1 101980 48
2011-11-10 07:57:57 51°14.085 2°55.478 -999 282 9.1 101980 48
2011-11-10 07:58:02 51°14.095 2°55.468 -999 334 9.1 101980 48
2011-11-10 07:58:07 51°14.105 2°55.458 -999 282 9.1 101980 48
2011-11-10 07:58:12 51°14.115 2°55.448 -999 334 9.1 101980 48
2011-11-10 07:58:17 51°14.124 2°55.437 -999 282 9.1 101980 48
2011-11-10 07:58:23 51°14.136 2°55.425 -999 334 9.1 101980 48
2011-11-10 07:58:29 51°14.148 2°55.413 -999 282 9.1 101980 48
2011-11-10 07:58:33 51°14.157 2°55.405 -999 334 9.1 101980 48
2011-11-10 07:58:40 51°14.171 2°55.391 -999 282 9.1 101980 48
2011-11-10 07:58:45 51°14.181 2°55.38 -999 334 9.1 101980 48
2011-11-10 07:58:51 51°14.194 2°55.368 -999 282 9.1 101980 48
2011-11-10 07:58:56 51°14.205 2°55.358 -999 334 9.1 101980 48
2011-11-10 07:59:01 51°14.216 2°55.347 -999 282 9.1 101980 48
2011-11-10 07:59:05 51°14.224 2°55.34 -999 334 9.1 101980 46
2011-11-10 07:59:11 51°14.237 2°55.327 -999 282 9.1 101980 46
2011-11-10 07:59:16 51°14.248 2°55.317 -999 338 9.1 101980 48
2011-11-10 07:59:21 51°14.259 2°55.307 -999 282 9.1 101980 48
2011-11-10 07:59:25 51°14.268 2°55.299 -999 338 9.1 101980 48
2011-11-10 07:59:31 51°14.281 2°55.287 -999 282 9.1 101980 48
2011-11-10 07:59:36 51°14.292 2°55.277 -999 341 9.1 101980 48
2011-11-10 07:59:41 51°14.303 2°55.267 -999 282 9.1 101980 48
2011-11-10 07:59:45 51°14.313 2°55.258 -999 348 9.1 101980 48
2011-11-10 07:59:51 51°14.326 2°55.246 -999 357 9.1 101980 48
2011-11-10 07:59:56 51°14.337 2°55.235 -999 358 9.1 101980 48
2011-11-10 08:00:01 51°14.349 2°55.224 -999 359 9.1 101980 48
2011-11-10 08:00:05 51°14.358 2°55.216 -999 359 9.1 101980 48
2011-11-10 08:00:11 51°14.371 2°55.202 -999 1 9.1 101980 48
2011-11-10 08:00:16 51°14.382 2°55.19 -999 6 9.1 101980 48
2011-11-10 08:00:21 51°14.393 2°55.177 -999 360 9.1 101980 48
2011-11-10 08:00:25 51°14.402 2°55.167 -999 360 9.1 101980 48
2011-11-10 08:00:30 51°14.413 2°55.155 -999 357 9.1 101980 48
2011-11-10 08:00:36 51°14.426 2°55.139 -999 357 9.1 101980 48
2011-11-10 08:00:41 51°14.437 2°55.126 -999 358 9.1 101980 48
2011-11-10 08:00:45 51°14.447 2°55.116 -999 355 9.1 101980 48
2011-11-10 08:00:50 51°14.458 2°55.104 -999 352 9.1 101980 48
2011-11-10 08:00:55 51°14.47 2°55.09 -999 360 9.1 101980 48
2011-11-10 08:01:00 51°14.481 2°55.077 -999 353 9.1 101980 48
2011-11-10 08:01:05 51°14.493 2°55.064 -999 354 9.1 101980 48
2011-11-10 08:01:09 51°14.503 2°55.053 -999 354 9.1 101980 48
2011-11-10 08:01:14 51°14.514 2°55.038 -999 345 9.1 101980 48
2011-11-10 08:01:19 51°14.525 2°55.023 -999 282 9.1 101980 48
2011-11-10 08:01:24 51°14.536 2°55.006 -999 346 9.2 101980 48
2011-11-10 08:01:29 51°14.547 2°54.989 -999 282 9.2 101980 48
2011-11-10 08:01:34 51°14.558 2°54.972 -999 351 9.1 101980 48
2011-11-10 08:01:39 51°14.569 2°54.956 -999 352 9.1 101980 48
2011-11-10 08:01:43 51°14.577 2°54.942 -999 343 9.2 101980 47
2011-11-10 08:01:48 51°14.588 2°54.924 -999 282 9.2 101980 47
2011-11-10 08:01:53 51°14.597 2°54.904 -999 335 9.2 101980 48
2011-11-10 08:01:58 51°14.606 2°54.884 -999 282 9.2 101980 48
2011-11-10 08:02:03 51°14.614 2°54.862 -999 337 9.2 101980 48
2011-11-10 08:02:08 51°14.622 2°54.84 -999 282 9.2 101980 48
2011-11-10 08:02:13 51°14.629 2°54.817 -999 334 9.2 101980 48
2011-11-10 08:02:17 51°14.634 2°54.798 -999 282 9.2 101980 48
2011-11-10 08:02:22 51°14.639 2°54.773 0.7 327 9.2 101990 48
2011-11-10 08:02:27 51°14.642 2°54.748 0.8 277 9.2 101990 48
2011-11-10 08:02:32 51°14.643 2°54.722 1.9 326 9.2 101980 48
2011-11-10 08:02:37 51°14.643 2°54.696 0.8 282 9.2 101980 48
2011-11-10 08:02:42 51°14.641 2°54.67 1.6 315 9.2 101980 47
2011-11-10 08:02:47 51°14.638 2°54.645 2.4 284 9.2 101980 47
2011-11-10 08:02:53 51°14.632 2°54.615 2.9 22 9.2 101980 49
2011-11-10 08:02:57 51°14.627 2°54.595 4.9 309 9.2 101980 49
2011-11-10 08:03:02 51°14.62 2°54.571 4.5 20 9.2 101990 47
2011-11-10 08:03:07 51°14.613 2°54.547 5.1 279 9.2 101990 47
2011-11-10 08:03:12 51°14.605 2°54.523 5 22 9.2 101990 47
2011-11-10 08:03:17 51°14.597 2°54.499 5 282 9.2 101990 47
2011-11-10 08:03:22 51°14.588 2°54.475 6.3 24 9.3 101980 47
2011-11-10 08:03:27 51°14.579 2°54.45 5.2 285 9.3 101980 47
2011-11-10 08:03:32 51°14.57 2°54.425 5.5 316 9.3 101980 47
2011-11-10 08:03:37 51°14.562 2°54.399 5.4 281 9.3 101980 47
2011-11-10 08:03:42 51°14.553 2°54.374 6.1 24 9.3 101980 47
2011-11-10 08:03:48 51°14.543 2°54.343 6.2 284 9.3 101980 47
2011-11-10 08:03:52 51°14.535 2°54.323 6 21 9.2 101980 48
2011-11-10 08:03:57 51°14.525 2°54.298 6.5 286 9.2 101980 48
2011-11-10 08:04:02 51°14.515 2°54.274 6.3 22 9.3 101980 48
2011-11-10 08:04:08 51°14.502 2°54.245 7.4 283 9.3 101980 48
2011-11-10 08:04:12 51°14.494 2°54.227 6.2 25 9.2 101980 48
2011-11-10 08:04:17 51°14.483 2°54.203 7.3 286 9.2 101980 48
2011-11-10 08:04:22 51°14.471 2°54.18 6.9 20 9.2 101980 47
2011-11-10 08:04:27 51°14.46 2°54.157 7.5 283 9.2 101980 47
2011-11-10 08:04:33 51°14.446 2°54.129 6.6 26 9.2 101970 47
2011-11-10 08:04:37 51°14.438 2°54.11 6.5 279 9.2 101970 47
2011-11-10 08:04:42 51°14.426 2°54.087 6 26 9.2 101980 49
2011-11-10 08:04:47 51°14.415 2°54.064 6 280 9.2 101980 49
2011-11-10 08:04:52 51°14.404 2°54.041 5.9 24 9.3 101970 48
2011-11-10 08:04:57 51°14.393 2°54.017 6.5 304 9.3 101970 48
2011-11-10 08:05:02 51°14.381 2°53.994 5.8 27 9.3 101970 49
2011-11-10 08:05:07 51°14.37 2°53.97 5.7 284 9.3 101970 49
2011-11-10 08:05:12 51°14.359 2°53.947 5.6 25 9.3 101980 48
2011-11-10 08:05:17 51°14.348 2°53.924 7.8 282 9.3 101980 48
2011-11-10 08:05:22 51°14.337 2°53.9 5.9 27 9.3 101980 47
2011-11-10 08:05:27 51°14.326 2°53.877 7.6 284 9.3 101980 47
2011-11-10 08:05:32 51°14.314 2°53.853 6.3 26 9.3 101980 47
2011-11-10 08:05:37 51°14.303 2°53.831 6.3 285 9.3 101980 47
2011-11-10 08:05:42 51°14.291 2°53.808 6.5 26 9.4 101980 47
2011-11-10 08:05:47 51°14.279 2°53.786 6.6 280 9.4 101980 47
2011-11-10 08:05:53 51°14.264 2°53.759 7.2 20 9.4 101970 47
2011-11-10 08:05:57 51°14.255 2°53.741 7.3 279 9.4 101970 47
2011-11-10 08:06:02 51°14.242 2°53.719 7.1 27 9.4 101970 49
2011-11-10 08:06:08 51°14.228 2°53.693 7.2 285 9.4 101970 49
2011-11-10 08:06:13 51°14.215 2°53.671 6.9 21 9.4 101970 47
2011-11-10 08:06:17 51°14.206 2°53.653 6.9 280 9.4 101970 47
2011-11-10 08:06:22 51°14.194 2°53.631 8.6 20 9.4 101970 47
2011-11-10 08:06:27 51°14.181 2°53.61 9.7 285 9.4 101970 47
2011-11-10 08:06:33 51°14.167 2°53.583 7.4 26 9.5 101970 47
2011-11-10 08:06:37 51°14.157 2°53.566 8 308 9.5 101970 47
2011-11-10 08:06:42 51°14.145 2°53.544 8.7 26 9.5 101970 47
2011-11-10 08:06:47 51°14.133 2°53.522 7.5 284 9.5 101970 47
2011-11-10 08:06:52 51°14.121 2°53.5 7.8 24 9.5 101970 48
2011-11-10 08:06:57 51°14.108 2°53.478 8.2 286 9.5 101970 48
2011-11-10 08:07:02 51°14.096 2°53.456 7.5 22 9.5 101960 46
2011-11-10 08:07:07 51°14.085 2°53.433 7.6 280 9.5 101960 46
2011-11-10 08:07:12 51°14.073 2°53.41 7.5 19 9.5 101960 47
2011-11-10 08:07:17 51°14.061 2°53.387 7.6 284 9.5 101960 47
2011-11-10 08:07:22 51°14.05 2°53.364 7.3 20 9.5 101960 48
2011-11-10 08:07:27 51°14.039 2°53.341 7.4 284 9.5 101960 48
2011-11-10 08:07:32 51°14.028 2°53.318 7.9 27 9.5 101960 47
2011-11-10 08:07:37 51°14.017 2°53.294 7.4 284 9.5 101960 47
2011-11-10 08:07:42 51°14.005 2°53.271 6.6 26 9.5 101970 47
2011-11-10 08:07:47 51°13.994 2°53.248 7.5 284 9.5 101970 47
2011-11-10 08:07:53 51°13.981 2°53.22 6.8 27 9.5 101960 47
2011-11-10 08:07:57 51°13.972 2°53.201 7.2 284 9.5 101960 47
2011-11-10 08:08:02 51°13.96 2°53.178 7.6 21 9.5 101960 47
2011-11-10 08:08:07 51°13.949 2°53.154 7.2 284 9.5 101960 47
2011-11-10 08:08:12 51°13.938 2°53.131 7.6 26 9.5 101960 48
2011-11-10 08:08:17 51°13.926 2°53.108 7.7 282 9.5 101960 48
2011-11-10 08:08:22 51°13.915 2°53.085 7.7 23 9.5 101970 47
2011-11-10 08:08:27 51°13.903 2°53.063 8.3 308 9.5 101970 47
2011-11-10 08:08:32 51°13.891 2°53.04 8.1 26 9.5 101960 47
2011-11-10 08:08:37 51°13.879 2°53.018 8.6 286 9.5 101960 47
2011-11-10 08:08:42 51°13.868 2°52.995 8 27 9.5 101960 48
2011-11-10 08:08:47 51°13.856 2°52.972 9.5 282 9.5 101960 48
2011-11-10 08:08:53 51°13.842 2°52.945 7.1 26 9.5 101960 46
2011-11-10 08:08:57 51°13.832 2°52.927 8 308 9.5 101960 46
2011-11-10 08:09:02 51°13.82 2°52.905 7.7 26 9.5 101950 47
2011-11-10 08:09:07 51°13.808 2°52.883 9.6 281 9.5 101950 47
2011-11-10 08:09:12 51°13.796 2°52.86 7.1 26 9.5 101960 46
2011-11-10 08:09:17 51°13.784 2°52.837 8.4 303 9.5 101960 46
2011-11-10 08:09:22 51°13.773 2°52.814 8.7 25 9.5 101950 47
2011-11-10 08:09:27 51°13.762 2°52.79 9.4 282 9.5 101950 47
2011-11-10 08:09:32 51°13.75 2°52.767 8 21 9.5 101960 46
2011-11-10 08:09:37 51°13.739 2°52.743 8.3 280 9.5 101960 46
2011-11-10 08:09:42 51°13.729 2°52.719 7.6 26 9.5 101950 46
2011-11-10 08:09:47 51°13.719 2°52.694 7 282 9.5 101950 46
2011-11-10 08:09:53 51°13.706 2°52.665 6.7 25 9.5 101960 47
2011-11-10 08:09:57 51°13.698 2°52.645 7.6 287 9.5 101960 47
2011-11-10 08:10:02 51°13.689 2°52.619 6.3 24 9.6 101950 46
2011-11-10 08:10:07 51°13.679 2°52.594 7.3 280 9.6 101950 46
2011-11-10 08:10:12 51°13.67 2°52.568 7.2 20 9.6 101960 46
2011-11-10 08:10:17 51°13.66 2°52.542 6.6 281 9.6 101960 46
2011-11-10 08:10:22 51°13.651 2°52.516 5.7 25 9.6 101960 46
2011-11-10 08:10:27 51°13.643 2°52.49 5.2 284 9.6 101960 46
2011-11-10 08:10:32 51°13.634 2°52.463 6.9 24 9.6 101960 46
2011-11-10 08:10:37 51°13.625 2°52.437 7 280 9.6 101960 46
2011-11-10 08:10:42 51°13.617 2°52.41 6.7 24 9.6 101950 48
2011-11-10 08:10:48 51°13.607 2°52.378 6.8 280 9.6 101950 48
2011-11-10 08:10:53 51°13.599 2°52.351 6.3 26 9.6 101960 47
2011-11-10 08:10:57 51°13.593 2°52.33 5.6 285 9.6 101960 47
2011-11-10 08:11:02 51°13.585 2°52.303 7.1 20 9.6 101960 48
2011-11-10 08:11:07 51°13.577 2°52.276 6.7 280 9.6 101960 48
2011-11-10 08:11:12 51°13.569 2°52.249 6.1 23 9.6 101960 46
2011-11-10 08:11:17 51°13.562 2°52.222 6.8 286 9.6 101960 46
2011-11-10 08:11:22 51°13.554 2°52.195 6.6 28 9.6 101960 47
2011-11-10 08:11:27 51°13.546 2°52.168 6.8 286 9.6 101960 47
2011-11-10 08:11:32 51°13.538 2°52.141 7.4 20 9.6 101960 46
2011-11-10 08:11:37 51°13.53 2°52.115 7.1 281 9.6 101960 46
2011-11-10 08:11:42 51°13.522 2°52.088 7.8 19 9.6 101960 46
2011-11-10 08:11:47 51°13.514 2°52.062 6.7 285 9.6 101960 46
2011-11-10 08:11:52 51°13.506 2°52.035 7.1 28 9.6 101950 47
2011-11-10 08:11:57 51°13.497 2°52.008 5.9 302 9.6 101950 47
2011-11-10 08:12:02 51°13.489 2°51.982 6 25 9.7 101960 47
2011-11-10 08:12:07 51°13.481 2°51.955 6.5 281 9.7 101960 47
2011-11-10 08:12:12 51°13.473 2°51.929 7.1 20 9.6 101960 46
2011-11-10 08:12:17 51°13.464 2°51.902 7 279 9.6 101960 46
2011-11-10 08:12:22 51°13.456 2°51.876 7.5 22 9.6 101960 44
2011-11-10 08:12:27 51°13.447 2°51.85 6.9 280 9.6 101960 44
2011-11-10 08:12:32 51°13.438 2°51.824 8.1 25 9.7 101960 46
2011-11-10 08:12:37 51°13.429 2°51.797 7.2 279 9.7 101960 46
2011-11-10 08:12:42 51°13.42 2°51.771 7.4 26 9.6 101960 46
2011-11-10 08:12:47 51°13.412 2°51.745 6.9 279 9.6 101960 46
2011-11-10 08:12:53 51°13.401 2°51.714 7.9 20 9.6 101960 46
2011-11-10 08:12:57 51°13.394 2°51.693 7.6 281 9.6 101960 46
2011-11-10 08:13:02 51°13.385 2°51.666 8.3 22 9.7 101960 45
2011-11-10 08:13:07 51°13.377 2°51.64 7.4 283 9.7 101960 45
2011-11-10 08:13:12 51°13.368 2°51.614 6.6 19 9.7 101960 47
2011-11-10 08:13:17 51°13.36 2°51.587 6.8 278 9.7 101960 47
2011-11-10 08:13:22 51°13.351 2°51.56 7.1 23 9.7 101960 47
2011-11-10 08:13:27 51°13.343 2°51.534 6.9 284 9.7 101960 47
2011-11-10 08:13:33 51°13.332 2°51.502 6.9 25 9.7 101960 46
2011-11-10 08:13:37 51°13.326 2°51.481 6.5 285 9.7 101960 46
2011-11-10 08:13:42 51°13.317 2°51.455 7.9 25 9.7 101960 46
2011-11-10 08:13:47 51°13.308 2°51.428 6.8 278 9.7 101960 46
2011-11-10 08:13:52 51°13.3 2°51.402 7.2 19 9.7 101960 46
2011-11-10 08:13:57 51°13.291 2°51.375 7 307 9.7 101960 46
2011-11-10 08:14:02 51°13.282 2°51.349 6.9 27 9.7 101960 47
2011-11-10 08:14:07 51°13.273 2°51.324 8.4 285 9.7 101960 47
2011-11-10 08:14:12 51°13.263 2°51.298 7.3 24 9.7 101960 47
2011-11-10 08:14:17 51°13.254 2°51.272 7.6 304 9.7 101960 47
2011-11-10 08:14:22 51°13.244 2°51.246 7.5 21 9.7 101960 46
2011-11-10 08:14:27 51°13.235 2°51.221 7.8 279 9.7 101960 46
2011-11-10 08:14:32 51°13.225 2°51.195 6.5 26 9.7 101960 47
2011-11-10 08:14:37 51°13.215 2°51.17 7.2 284 9.7 101960 47
2011-11-10 08:14:42 51°13.206 2°51.144 7.2 20 9.7 101960 46
2011-11-10 08:14:47 51°13.196 2°51.119 7.3 284 9.7 101960 46
2011-11-10 08:14:52 51°13.187 2°51.093 7.1 28 9.7 101960 47
2011-11-10 08:14:57 51°13.178 2°51.068 6.1 284 9.7 101960 47
2011-11-10 08:15:02 51°13.168 2°51.042 6.3 28 9.7 101960 46
2011-11-10 08:15:07 51°13.159 2°51.016 7.6 309 9.7 101960 46
2011-11-10 08:15:12 51°13.149 2°50.99 7.1 19 9.6 101960 46
2011-11-10 08:15:17 51°13.14 2°50.965 6 278 9.6 101960 46
2011-11-10 08:15:22 51°13.131 2°50.939 6.5 22 9.6 101960 46
2011-11-10 08:15:28 51°13.12 2°50.908 6.9 279 9.6 101960 46
2011-11-10 08:15:33 51°13.11 2°50.882 6 19 9.6 101960 45
2011-11-10 08:15:37 51°13.103 2°50.862 7.2 303 9.6 101960 45
2011-11-10 08:15:42 51°13.093 2°50.836 6.7 21 9.6 101960 46
2011-11-10 08:15:47 51°13.084 2°50.81 6.6 284 9.6 101960 46
2011-11-10 08:15:52 51°13.075 2°50.783 6.7 24 9.6 101960 45
2011-11-10 08:15:57 51°13.066 2°50.758 6.2 281 9.6 101960 45
2011-11-10 08:16:02 51°13.058 2°50.732 6.1 23 9.6 101960 46
2011-11-10 08:16:07 51°13.049 2°50.705 6.4 284 9.6 101960 46
2011-11-10 08:16:12 51°13.041 2°50.679 6.9 24 9.5 101960 46
2011-11-10 08:16:17 51°13.032 2°50.652 6.4 280 9.5 101960 46
2011-11-10 08:16:22 51°13.025 2°50.625 8 22 9.5 101960 46
2011-11-10 08:16:27 51°13.016 2°50.598 6.9 284 9.5 101960 46
2011-11-10 08:16:32 51°13.008 2°50.572 6.7 24 9.5 101960 47
2011-11-10 08:16:37 51°13 2°50.545 6.9 282 9.5 101960 47
2011-11-10 08:16:42 51°12.991 2°50.519 5.5 25 9.5 101960 45
2011-11-10 08:16:47 51°12.983 2°50.492 6.9 280 9.5 101960 45
2011-11-10 08:16:52 51°12.974 2°50.466 6.5 20 9.5 101960 47
2011-11-10 08:16:57 51°12.965 2°50.439 6.1 279 9.5 101960 47
2011-11-10 08:17:02 51°12.957 2°50.413 7.5 19 9.4 101960 46
2011-11-10 08:17:08 51°12.947 2°50.381 6.5 280 9.4 101960 46
2011-11-10 08:17:12 51°12.94 2°50.36 6.8 24 9.4 101960 47
2011-11-10 08:17:17 51°12.931 2°50.334 7.5 284 9.4 101960 47
2011-11-10 08:17:22 51°12.923 2°50.307 6.3 22 9.4 101960 46
2011-11-10 08:17:27 51°12.914 2°50.281 7.4 279 9.4 101960 46
2011-11-10 08:17:33 51°12.904 2°50.249 6.1 25 9.4 101960 46
2011-11-10 08:17:37 51°12.897 2°50.228 6.7 284 9.4 101960 46
2011-11-10 08:17:42 51°12.888 2°50.201 6.2 25 9.4 101960 44
2011-11-10 08:17:47 51°12.879 2°50.175 6.2 285 9.4 101960 44
2011-11-10 08:17:53 51°12.869 2°50.144 6.1 20 9.4 101960 47
2011-11-10 08:17:57 51°12.862 2°50.122 6.2 280 9.4 101960 47
2011-11-10 08:18:02 51°12.853 2°50.096 7.1 26 9.4 101960 46
2011-11-10 08:18:07 51°12.845 2°50.069 6.1 279 9.4 101960 46
2011-11-10 08:18:12 51°12.836 2°50.043 7.1 23 9.4 101960 45
2011-11-10 08:18:17 51°12.827 2°50.016 6.2 279 9.4 101960 45
2011-11-10 08:18:22 51°12.819 2°49.99 6.5 24 9.3 101960 47
2011-11-10 08:18:27 51°12.81 2°49.964 6.9 286 9.3 101960 47
2011-11-10 08:18:32 51°12.801 2°49.937 6.2 19 9.3 101960 46
2011-11-10 08:18:37 51°12.792 2°49.911 5.6 308 9.3 101960 46
2011-11-10 08:18:42 51°12.783 2°49.884 6.4 26 9.3 101960 47
2011-11-10 08:18:47 51°12.774 2°49.858 6.4 284 9.3 101960 47
2011-11-10 08:18:52 51°12.765 2°49.832 7 21 9.3 101960 46
2011-11-10 08:18:57 51°12.756 2°49.806 6.8 285 9.3 101960 46
2011-11-10 08:19:02 51°12.746 2°49.78 6.4 23 9.3 101960 47
2011-11-10 08:19:07 51°12.737 2°49.755 5.6 278 9.3 101960 47
2011-11-10 08:19:12 51°12.727 2°49.73 6.2 28 9.3 101960 47
2011-11-10 08:19:17 51°12.717 2°49.704 6.6 285 9.3 101960 47
2011-11-10 08:19:22 51°12.708 2°49.679 6.7 25 9.3 101960 48
2011-11-10 08:19:28 51°12.696 2°49.647 5.9 279 9.3 101960 48
2011-11-10 08:19:32 51°12.689 2°49.627 6.8 19 9.3 101960 46
2011-11-10 08:19:37 51°12.679 2°49.601 5.8 284 9.3 101960 46
2011-11-10 08:19:42 51°12.67 2°49.575 5.9 20 9.3 101960 47
2011-11-10 08:19:48 51°12.659 2°49.545 6.1 303 9.3 101960 47
2011-11-10 08:19:53 51°12.649 2°49.519 5.9 21 9.3 101960 46
2011-11-10 08:19:57 51°12.642 2°49.498 5.5 284 9.3 101960 46
2011-11-10 08:20:02 51°12.633 2°49.472 6.2 21 9.3 101960 48
2011-11-10 08:20:07 51°12.623 2°49.446 5.8 282 9.3 101960 48
2011-11-10 08:20:13 51°12.612 2°49.415 6.8 22 9.3 101960 48
2011-11-10 08:20:17 51°12.606 2°49.394 6.6 279 9.3 101960 48
2011-11-10 08:20:22 51°12.597 2°49.367 6.5 19 9.3 101950 45
2011-11-10 08:20:27 51°12.589 2°49.341 5.6 286 9.3 101950 45
2011-11-10 08:20:32 51°12.58 2°49.314 6.7 23 9.3 101960 46
2011-11-10 08:20:37 51°12.572 2°49.288 6.7 283 9.3 101960 46
2011-11-10 08:20:42 51°12.564 2°49.261 6.5 25 9.2 101960 47
2011-11-10 08:20:47 51°12.556 2°49.234 7.2 283 9.2 101960 47
2011-11-10 08:20:52 51°12.547 2°49.207 5.8 26 9.2 101960 46
2011-11-10 08:20:57 51°12.539 2°49.181 5.1 279 9.2 101960 46
2011-11-10 08:21:02 51°12.531 2°49.154 6.8 22 9.2 101960 46
2011-11-10 08:21:07 51°12.523 2°49.127 6.7 282 9.2 101960 46
2011-11-10 08:21:12 51°12.515 2°49.1 6 25 9.2 101960 48
2011-11-10 08:21:17 51°12.506 2°49.074 6.4 283 9.2 101960 48
2011-11-10 08:21:22 51°12.498 2°49.047 6.5 28 9.2 101960 46
2011-11-10 08:21:27 51°12.489 2°49.021 7 278 9.2 101960 46
2011-11-10 08:21:32 51°12.481 2°48.994 5.6 25 9.2 101960 47
2011-11-10 08:21:37 51°12.472 2°48.968 5.7 286 9.2 101960 47
2011-11-10 08:21:42 51°12.464 2°48.941 6.1 22 9.2 101960 46
2011-11-10 08:21:48 51°12.453 2°48.91 5.8 286 9.2 101960 46
2011-11-10 08:21:53 51°12.445 2°48.883 6.5 19 9.2 101960 46
2011-11-10 08:21:57 51°12.438 2°48.862 5.1 279 9.2 101960 46
2011-11-10 08:22:02 51°12.429 2°48.837 6 22 9.2 101960 48
2011-11-10 08:22:07 51°12.42 2°48.81 4.4 283 9.2 101960 48
2011-11-10 08:22:12 51°12.411 2°48.784 5.5 22 9.2 101960 48
2011-11-10 08:22:17 51°12.401 2°48.758 6.1 285 9.2 101960 48
2011-11-10 08:22:22 51°12.392 2°48.733 6.1 25 9.2 101960 46
2011-11-10 08:22:27 51°12.382 2°48.707 6.2 281 9.2 101960 46
2011-11-10 08:22:33 51°12.371 2°48.677 5.8 20 9.2 101960 47
2011-11-10 08:22:37 51°12.363 2°48.656 5.7 303 9.2 101960 47
2011-11-10 08:22:42 51°12.354 2°48.63 6.9 21 9.2 101960 48
2011-11-10 08:22:47 51°12.345 2°48.604 5.6 280 9.2 101960 48
2011-11-10 08:22:52 51°12.335 2°48.578 6.3 22 9.2 101960 47
2011-11-10 08:22:57 51°12.326 2°48.552 6.9 280 9.2 101960 47
2011-11-10 08:23:02 51°12.317 2°48.526 6.7 22 9.2 101960 46
2011-11-10 08:23:07 51°12.308 2°48.5 6.5 280 9.2 101960 46
2011-11-10 08:23:12 51°12.298 2°48.474 7.3 21 9.3 101960 47
2011-11-10 08:23:17 51°12.289 2°48.448 6 282 9.3 101960 47
2011-11-10 08:23:22 51°12.28 2°48.422 6.7 24 9.2 101960 47
2011-11-10 08:23:27 51°12.27 2°48.396 5.7 281 9.2 101960 47
2011-11-10 08:23:32 51°12.261 2°48.37 6.1 26 9.2 101960 47
2011-11-10 08:23:37 51°12.252 2°48.344 6.9 284 9.2 101960 47
2011-11-10 08:23:42 51°12.243 2°48.318 6.5 26 9.2 101960 46
2011-11-10 08:23:48 51°12.232 2°48.287 5.6 281 9.2 101960 46
2011-11-10 08:23:53 51°12.224 2°48.26 6 22 9.3 101960 47
2011-11-10 08:23:57 51°12.217 2°48.239 6.6 286 9.3 101960 47
2011-11-10 08:24:02 51°12.208 2°48.213 6.4 27 9.2 101960 47
2011-11-10 08:24:08 51°12.197 2°48.182 5.5 282 9.2 101960 47
2011-11-10 08:24:12 51°12.19 2°48.162 6.3 23 9.2 101960 48
2011-11-10 08:24:17 51°12.18 2°48.137 6.3 284 9.2 101960 48
2011-11-10 08:24:22 51°12.172 2°48.11 5.8 23 9.2 101960 46
2011-11-10 08:24:27 51°12.163 2°48.084 5.8 280 9.2 101960 46
2011-11-10 08:24:32 51°12.155 2°48.057 6 20 9.3 101960 48
2011-11-10 08:24:37 51°12.147 2°48.03 5.4 284 9.3 101960 48
2011-11-10 08:24:42 51°12.139 2°48.003 5.2 26 9.3 101960 47
2011-11-10 08:24:47 51°12.132 2°47.976 4.6 285 9.3 101960 47
2011-11-10 08:24:52 51°12.125 2°47.948 6.6 27 9.3 101960 46
2011-11-10 08:24:57 51°12.117 2°47.921 5.9 278 9.3 101960 46
2011-11-10 08:25:02 51°12.11 2°47.893 6.3 26 9.3 101960 47
2011-11-10 08:25:07 51°12.103 2°47.865 5.4 281 9.3 101960 47
2011-11-10 08:25:12 51°12.096 2°47.838 5.9 26 9.3 101960 49
2011-11-10 08:25:17 51°12.089 2°47.81 5.1 281 9.3 101960 49
2011-11-10 08:25:22 51°12.082 2°47.783 4.8 25 9.3 101960 47
2011-11-10 08:25:27 51°12.075 2°47.755 5.3 279 9.3 101960 47
2011-11-10 08:25:32 51°12.067 2°47.728 6.2 22 9.3 101960 48
2011-11-10 08:25:37 51°12.06 2°47.7 6.7 284 9.3 101960 48
2011-11-10 08:25:42 51°12.053 2°47.673 5.6 20 9.3 101960 47
2011-11-10 08:25:47 51°12.045 2°47.645 5.7 281 9.3 101960 47
2011-11-10 08:25:53 51°12.036 2°47.613 5.4 19 9.3 101960 47
2011-11-10 08:25:57 51°12.03 2°47.591 6.4 285 9.3 101960 47
2011-11-10 08:26:02 51°12.022 2°47.564 5.1 20 9.3 101960 46
2011-11-10 08:26:07 51°12.014 2°47.537 5.7 278 9.3 101960 46
2011-11-10 08:26:12 51°12.006 2°47.51 5.4 21 9.3 101960 47
2011-11-10 08:26:17 51°11.998 2°47.483 6 285 9.3 101960 47
2011-11-10 08:26:22 51°11.989 2°47.457 7.5 27 9.3 101960 47
2011-11-10 08:26:27 51°11.981 2°47.43 6.6 285 9.3 101960 47
2011-11-10 08:26:32 51°11.972 2°47.403 6.8 21 9.3 101960 47
2011-11-10 08:26:37 51°11.964 2°47.377 7 285 9.3 101960 47
2011-11-10 08:26:42 51°11.955 2°47.35 7.3 21 9.3 101960 48
2011-11-10 08:26:47 51°11.947 2°47.323 6.2 283 9.3 101960 48
2011-11-10 08:26:53 51°11.937 2°47.291 6.1 29 9.4 101960 47
2011-11-10 08:26:57 51°11.93 2°47.27 5.5 307 9.4 101960 47
2011-11-10 08:27:02 51°11.922 2°47.243 6.3 26 9.3 101960 48
2011-11-10 08:27:07 51°11.914 2°47.216 6.9 284 9.3 101960 48
2011-11-10 08:27:12 51°11.905 2°47.19 6.1 24 9.3 101960 48
2011-11-10 08:27:17 51°11.897 2°47.163 7.3 286 9.3 101960 48
2011-11-10 08:27:22 51°11.888 2°47.136 5.9 26 9.4 101960 48
2011-11-10 08:27:27 51°11.88 2°47.109 7 285 9.4 101960 48
2011-11-10 08:27:32 51°11.871 2°47.082 6.6 26 9.4 101960 48
2011-11-10 08:27:37 51°11.863 2°47.056 5.9 280 9.4 101960 48
2011-11-10 08:27:42 51°11.856 2°47.028 6.9 21 9.4 101960 47
2011-11-10 08:27:47 51°11.848 2°47.001 6.6 278 9.4 101960 47
2011-11-10 08:27:53 51°11.839 2°46.968 6.9 22 9.4 101960 48
2011-11-10 08:27:57 51°11.833 2°46.946 7.1 286 9.4 101960 48
2011-11-10 08:28:02 51°11.826 2°46.919 7.2 20 9.4 101950 46
2011-11-10 08:28:07 51°11.819 2°46.892 6.3 279 9.4 101950 46
2011-11-10 08:28:12 51°11.812 2°46.864 4.9 21 9.4 101950 48
2011-11-10 08:28:17 51°11.804 2°46.837 4.7 280 9.4 101950 48
2011-11-10 08:28:22 51°11.797 2°46.809 5.8 26 9.4 101960 47
2011-11-10 08:28:27 51°11.789 2°46.782 7.6 280 9.4 101960 47
2011-11-10 08:28:32 51°11.782 2°46.755 6.1 23 9.4 101960 48
2011-11-10 08:28:37 51°11.774 2°46.727 6.1 283 9.4 101960 48
2011-11-10 08:28:42 51°11.767 2°46.7 6.2 24 9.4 101960 47
2011-11-10 08:28:48 51°11.758 2°46.667 5.7 286 9.4 101960 47
2011-11-10 08:28:53 51°11.751 2°46.639 5.2 21 9.4 101950 47
2011-11-10 08:28:57 51°11.744 2°46.617 7.7 285 9.4 101950 47
2011-11-10 08:29:02 51°11.737 2°46.59 6.2 20 9.4 101950 46
2011-11-10 08:29:07 51°11.729 2°46.563 7.1 284 9.4 101950 46
2011-11-10 08:29:12 51°11.72 2°46.537 5.9 21 9.4 101950 49
2011-11-10 08:29:17 51°11.712 2°46.509 6.7 284 9.4 101950 49
2011-11-10 08:29:22 51°11.703 2°46.483 7.8 26 9.5 101950 47
2011-11-10 08:29:27 51°11.695 2°46.457 5.9 278 9.5 101950 47
2011-11-10 08:29:32 51°11.686 2°46.43 7.3 19 9.5 101950 48
2011-11-10 08:29:37 51°11.677 2°46.404 7.4 301 9.5 101950 48
2011-11-10 08:29:42 51°11.668 2°46.377 6.9 23 9.5 101940 47
2011-11-10 08:29:47 51°11.66 2°46.35 5.4 278 9.5 101940 47
2011-11-10 08:29:52 51°11.651 2°46.324 7.6 20 9.5 101950 46
2011-11-10 08:29:57 51°11.642 2°46.298 6.7 284 9.5 101950 46
2011-11-10 08:30:02 51°11.634 2°46.271 5.7 26 9.5 101950 47
2011-11-10 08:30:07 51°11.626 2°46.244 6.8 283 9.5 101950 47
2011-11-10 08:30:12 51°11.617 2°46.217 6.8 26 9.5 101950 47
2011-11-10 08:30:17 51°11.609 2°46.191 5.6 285 9.5 101950 47
2011-11-10 08:30:22 51°11.601 2°46.164 7 24 9.5 101940 48
2011-11-10 08:30:27 51°11.593 2°46.138 6.1 278 9.5 101940 48
2011-11-10 08:30:32 51°11.585 2°46.11 6 19 9.5 101950 46
2011-11-10 08:30:37 51°11.577 2°46.083 5.6 281 9.5 101950 46
2011-11-10 08:30:42 51°11.569 2°46.056 4.7 20 9.5 101950 48
2011-11-10 08:30:47 51°11.561 2°46.029 5 308 9.5 101950 48
2011-11-10 08:30:53 51°11.552 2°45.996 5.2 21 9.5 101950 48
2011-11-10 08:30:57 51°11.546 2°45.974 6 284 9.5 101950 48
2011-11-10 08:31:02 51°11.538 2°45.947 6.2 27 9.5 101950 46
2011-11-10 08:31:08 51°11.529 2°45.914 5.4 279 9.5 101950 46
2011-11-10 08:31:12 51°11.523 2°45.893 5.7 23 9.5 101950 48
2011-11-10 08:31:17 51°11.516 2°45.865 6 280 9.5 101950 48
2011-11-10 08:31:22 51°11.508 2°45.838 6.8 25 9.5 101950 48
2011-11-10 08:31:27 51°11.501 2°45.811 5.7 285 9.5 101950 48
2011-11-10 08:31:33 51°11.492 2°45.779 6.3 24 9.5 101940 46
2011-11-10 08:31:37 51°11.486 2°45.757 5.2 309 9.5 101940 46
2011-11-10 08:31:42 51°11.478 2°45.73 5.2 20 9.5 101950 46
2011-11-10 08:31:47 51°11.47 2°45.704 6.9 284 9.5 101950 46
2011-11-10 08:31:52 51°11.462 2°45.677 6.4 28 9.5 101940 48
2011-11-10 08:31:57 51°11.454 2°45.65 6.5 306 9.5 101940 48
2011-11-10 08:32:02 51°11.446 2°45.623 5.3 21 9.5 101950 48
2011-11-10 08:32:07 51°11.438 2°45.597 6.3 280 9.5 101950 48
2011-11-10 08:32:12 51°11.43 2°45.57 6.8 24 9.5 101940 46
2011-11-10 08:32:17 51°11.422 2°45.543 5.5 285 9.5 101940 46
2011-11-10 08:32:22 51°11.413 2°45.517 6.5 27 9.5 101950 48
2011-11-10 08:32:27 51°11.405 2°45.49 6.5 283 9.5 101950 48
2011-11-10 08:32:32 51°11.397 2°45.463 6.8 316 9.5 101940 47
2011-11-10 08:32:37 51°11.388 2°45.437 5.4 278 9.5 101940 47
2011-11-10 08:32:42 51°11.38 2°45.411 6.5 26 9.5 101940 48
2011-11-10 08:32:47 51°11.371 2°45.385 5.7 280 9.5 101940 48
2011-11-10 08:32:52 51°11.362 2°45.359 6.4 26 9.5 101940 47
2011-11-10 08:32:57 51°11.354 2°45.333 7.5 285 9.5 101940 47
2011-11-10 08:33:02 51°11.345 2°45.306 6.2 26 9.5 101940 46
2011-11-10 08:33:08 51°11.335 2°45.275 5.8 286 9.5 101940 46
2011-11-10 08:33:12 51°11.329 2°45.254 4.4 22 9.5 101940 47
2011-11-10 08:33:17 51°11.321 2°45.227 5.6 286 9.5 101940 47
2011-11-10 08:33:22 51°11.313 2°45.201 6.9 19 9.5 101940 46
2011-11-10 08:33:27 51°11.304 2°45.174 5.6 280 9.5 101940 46
2011-11-10 08:33:33 51°11.295 2°45.143 6 18 9.5 101950 48
2011-11-10 08:33:37 51°11.288 2°45.122 6.6 307 9.5 101950 48
2011-11-10 08:33:42 51°11.28 2°45.095 6 25 9.5 101950 46
2011-11-10 08:33:47 51°11.271 2°45.069 5.8 280 9.5 101950 46
2011-11-10 08:33:52 51°11.263 2°45.042 7 22 9.5 101940 48
2011-11-10 08:33:57 51°11.255 2°45.016 6.7 304 9.5 101940 48
2011-11-10 08:34:02 51°11.247 2°44.99 6.5 21 9.5 101940 48
2011-11-10 08:34:07 51°11.238 2°44.963 6.7 278 9.5 101940 48
2011-11-10 08:34:12 51°11.231 2°44.936 6.8 21 9.5 101940 47
2011-11-10 08:34:17 51°11.224 2°44.908 7 281 9.5 101940 47
2011-11-10 08:34:22 51°11.217 2°44.882 6.2 20 9.5 101950 46
2011-11-10 08:34:27 51°11.21 2°44.854 6.2 284 9.5 101950 46
2011-11-10 08:34:32 51°11.203 2°44.827 5.2 20 9.5 101950 47
2011-11-10 08:34:37 51°11.197 2°44.799 5 284 9.5 101950 47
2011-11-10 08:34:42 51°11.19 2°44.771 6.8 25 9.5 101950 49
2011-11-10 08:34:47 51°11.184 2°44.743 5.4 278 9.5 101950 49
2011-11-10 08:34:52 51°11.178 2°44.715 5.6 28 9.5 101950 48
2011-11-10 08:34:57 51°11.172 2°44.687 6.9 284 9.5 101950 48
2011-11-10 08:35:02 51°11.166 2°44.66 5.5 21 9.5 101950 47
2011-11-10 08:35:08 51°11.158 2°44.626 4.9 278 9.5 101950 47
2011-11-10 08:35:12 51°11.153 2°44.604 5.6 24 9.5 101950 47
2011-11-10 08:35:17 51°11.147 2°44.576 5.5 283 9.5 101950 47
2011-11-10 08:35:22 51°11.14 2°44.549 6.3 20 9.5 101950 48
2011-11-10 08:35:28 51°11.133 2°44.515 5.3 283 9.5 101950 48
2011-11-10 08:35:33 51°11.126 2°44.488 6.4 24 9.5 101950 48
2011-11-10 08:35:37 51°11.121 2°44.465 5.1 281 9.5 101950 48
2011-11-10 08:35:42 51°11.115 2°44.438 5.8 19 9.5 101940 46
2011-11-10 08:35:47 51°11.108 2°44.41 6.2 281 9.5 101940 46
2011-11-10 08:35:52 51°11.101 2°44.382 5.2 27 9.5 101940 48
2011-11-10 08:35:57 51°11.094 2°44.355 4.8 283 9.5 101940 48
2011-11-10 08:36:02 51°11.087 2°44.328 4.8 25 9.5 101950 47
2011-11-10 08:36:07 51°11.08 2°44.3 4.8 284 9.5 101950 47
2011-11-10 08:36:12 51°11.073 2°44.273 7.3 28 9.5 101940 47
2011-11-10 08:36:17 51°11.065 2°44.246 6.9 306 9.5 101940 47
2011-11-10 08:36:22 51°11.058 2°44.219 6 20 9.5 101940 46
2011-11-10 08:36:27 51°11.05 2°44.193 6.5 284 9.5 101940 46
2011-11-10 08:36:32 51°11.042 2°44.166 6.9 26 9.5 101940 48
2011-11-10 08:36:37 51°11.034 2°44.139 6.5 285 9.5 101940 48
2011-11-10 08:36:42 51°11.027 2°44.112 6.7 24 9.6 101940 46
2011-11-10 08:36:47 51°11.02 2°44.085 6.9 279 9.6 101940 46
2011-11-10 08:36:52 51°11.013 2°44.058 6.7 21 9.6 101940 47
2011-11-10 08:36:57 51°11.006 2°44.03 6.6 277 9.6 101940 47
2011-11-10 08:37:02 51°11 2°44.002 5 19 9.6 101940 48
2011-11-10 08:37:07 51°10.993 2°43.975 5.2 284 9.6 101940 48
2011-11-10 08:37:12 51°10.987 2°43.947 6.4 24 9.6 101940 48
2011-11-10 08:37:17 51°10.981 2°43.919 5.6 285 9.6 101940 48
2011-11-10 08:37:22 51°10.975 2°43.891 5.3 24 9.6 101940 48
2011-11-10 08:37:27 51°10.97 2°43.863 6.8 280 9.6 101940 48
2011-11-10 08:37:33 51°10.963 2°43.829 5.1 26 9.6 101950 48
2011-11-10 08:37:37 51°10.958 2°43.807 5.4 281 9.6 101950 48
2011-11-10 08:37:42 51°10.952 2°43.779 6.9 21 9.6 101940 47
2011-11-10 08:37:47 51°10.946 2°43.751 5.3 282 9.6 101940 47
2011-11-10 08:37:52 51°10.94 2°43.724 5.5 20 9.6 101940 48
2011-11-10 08:37:57 51°10.934 2°43.695 5.9 285 9.6 101940 48
2011-11-10 08:38:02 51°10.928 2°43.668 6 22 9.6 101940 47
2011-11-10 08:38:07 51°10.922 2°43.64 6.8 286 9.6 101940 47
2011-11-10 08:38:12 51°10.916 2°43.612 6.1 26 9.6 101940 46
2011-11-10 08:38:17 51°10.91 2°43.584 7.2 301 9.6 101940 46
2011-11-10 08:38:22 51°10.904 2°43.556 5.6 25 9.6 101940 47
2011-11-10 08:38:27 51°10.897 2°43.529 5.8 279 9.6 101940 47
2011-11-10 08:38:32 51°10.891 2°43.501 6.9 21 9.6 101940 48
2011-11-10 08:38:37 51°10.885 2°43.474 6.3 280 9.6 101940 48
2011-11-10 08:38:42 51°10.878 2°43.446 5.3 27 9.6 101950 47
2011-11-10 08:38:47 51°10.872 2°43.418 5.4 279 9.6 101950 47
2011-11-10 08:38:52 51°10.866 2°43.391 5.8 19 9.6 101940 49
2011-11-10 08:38:57 51°10.859 2°43.363 7.5 286 9.6 101940 49
2011-11-10 08:39:02 51°10.853 2°43.335 6 20 9.6 101950 47
2011-11-10 08:39:07 51°10.847 2°43.308 5.2 282 9.6 101950 47
2011-11-10 08:39:12 51°10.84 2°43.28 6.5 22 9.6 101950 48
2011-11-10 08:39:17 51°10.833 2°43.253 5.4 286 9.6 101950 48
2011-11-10 08:39:22 51°10.827 2°43.226 5.6 25 9.6 101940 48
2011-11-10 08:39:27 51°10.819 2°43.199 4.4 279 9.6 101940 48
2011-11-10 08:39:33 51°10.811 2°43.166 7.4 21 9.6 101950 47
2011-11-10 08:39:37 51°10.806 2°43.144 6.7 279 9.6 101950 47
2011-11-10 08:39:42 51°10.799 2°43.117 7.3 20 9.6 101940 48
2011-11-10 08:39:48 51°10.791 2°43.085 5.9 279 9.6 101940 48
2011-11-10 08:39:53 51°10.784 2°43.057 7.9 23 9.6 101940 47
2011-11-10 08:39:57 51°10.779 2°43.035 5.5 284 9.6 101940 47
2011-11-10 08:40:02 51°10.772 2°43.008 6.7 27 9.6 101940 48
2011-11-10 08:40:08 51°10.764 2°42.975 5.7 279 9.6 101940 48
2011-11-10 08:40:12 51°10.758 2°42.954 6.4 20 9.6 101940 48
2011-11-10 08:40:17 51°10.752 2°42.926 5.6 282 9.6 101940 48
2011-11-10 08:40:22 51°10.745 2°42.899 5.6 28 9.6 101940 46
2011-11-10 08:40:27 51°10.739 2°42.872 6.4 279 9.6 101940 46
2011-11-10 08:40:33 51°10.73 2°42.839 7.2 20 9.6 101950 48
2011-11-10 08:40:37 51°10.724 2°42.818 7.1 303 9.6 101950 48
2011-11-10 08:40:42 51°10.716 2°42.792 6.8 22 9.6 101950 48
2011-11-10 08:40:47 51°10.709 2°42.765 7 285 9.6 101950 48
2011-11-10 08:40:52 51°10.701 2°42.738 6.7 21 9.6 101950 46
2011-11-10 08:40:57 51°10.694 2°42.712 8.4 310 9.6 101950 46
2011-11-10 08:41:02 51°10.686 2°42.686 7.1 22 9.6 101950 48
2011-11-10 08:41:07 51°10.679 2°42.659 6.6 285 9.6 101950 48
2011-11-10 08:41:12 51°10.672 2°42.633 5.6 27 9.6 101950 49
2011-11-10 08:41:17 51°10.664 2°42.606 6.1 284 9.6 101950 49
2011-11-10 08:41:22 51°10.657 2°42.579 6.8 20 9.6 101950 48
2011-11-10 08:41:27 51°10.65 2°42.553 5.9 283 9.6 101950 48
2011-11-10 08:41:32 51°10.643 2°42.526 7.3 27 9.6 101950 47
2011-11-10 08:41:37 51°10.636 2°42.499 6.4 280 9.6 101950 47
2011-11-10 08:41:42 51°10.629 2°42.472 6.5 26 9.6 101950 45
2011-11-10 08:41:47 51°10.622 2°42.445 5.8 284 9.6 101950 45
2011-11-10 08:41:52 51°10.615 2°42.418 6.4 24 9.6 101950 48
2011-11-10 08:41:57 51°10.607 2°42.392 6.4 283 9.6 101950 48
2011-11-10 08:42:02 51°10.6 2°42.365 5.9 21 9.6 101940 48
2011-11-10 08:42:08 51°10.592 2°42.333 6.2 279 9.6 101940 48
2011-11-10 08:42:12 51°10.586 2°42.312 5.4 25 9.6 101950 48
2011-11-10 08:42:17 51°10.579 2°42.285 5.3 283 9.6 101950 48
2011-11-10 08:42:22 51°10.572 2°42.258 5.3 20 9.6 101950 47
2011-11-10 08:42:27 51°10.566 2°42.232 5.9 279 9.6 101950 47
2011-11-10 08:42:33 51°10.558 2°42.199 6.4 25 9.6 101950 47
2011-11-10 08:42:37 51°10.552 2°42.178 5.8 307 9.6 101950 47
2011-11-10 08:42:42 51°10.545 2°42.151 7 25 9.7 101950 49
2011-11-10 08:42:47 51°10.539 2°42.124 6 278 9.7 101950 49
2011-11-10 08:42:52 51°10.532 2°42.098 5.8 21 9.6 101950 48
2011-11-10 08:42:57 51°10.525 2°42.071 6.6 304 9.6 101950 48
2011-11-10 08:43:02 51°10.518 2°42.044 6.9 22 9.6 101950 47
2011-11-10 08:43:07 51°10.512 2°42.017 6.8 281 9.6 101950 47
2011-11-10 08:43:12 51°10.505 2°41.99 6.1 25 9.7 101950 47
2011-11-10 08:43:17 51°10.499 2°41.963 5.6 278 9.7 101950 47
2011-11-10 08:43:22 51°10.492 2°41.936 5.5 25 9.7 101960 48
2011-11-10 08:43:27 51°10.486 2°41.909 6.7 282 9.7 101960 48